Massena, NY

7:25 AM EDT on August 18, 2017 (GMT -0400)
Massena International-Richards

Weather History for KMSS - November, 2014

Change the Weather History Date:

Sunday, November 2, 2014

  Actual Average Record
Temperature  
Mean Temperature 39 °F 40 °F  
Max Temperature 44 °F 49 °F 74 °F (1971)
Min Temperature 33 °F 32 °F 16 °F (1993)
Degree Days  
Heating Degree Days 26 25  
Month to date heating degree days 51 49  
Since 1 July heating degree days 740 930  
Cooling Degree Days 0 0  
Month to date cooling degree days 0 0  
Year to date cooling degree days 336 363  
Moisture  
Dew Point 20 °F    
Average Humidity 46    
Maximum Humidity 64    
Minimum Humidity 27    
Precipitation  
Precipitation 0.00 in 0.11 in 1.79 in (1967)
Month to date precipitation T 0.23  
Year to date precipitation 28.71 29.73  
Sea Level Pressure  
Sea Level Pressure 30.12 in    
Wind  
Wind Speed 12 mph (NNW)    
Max Wind Speed 22 mph    
Max Gust Speed 29 mph    
Visibility 10 miles    
Events      
T = Trace of Precipitation, MM = Missing Value Source: NWS Daily Summary

Daily Weather History Graph

Daily Weather History Graph

Search for Another Location

Airport or City:

Trip Planner

Search our weather history database for the weather conditions in past years. The results will help you decide how hot, cold, wet, or windy it might be!

Date:

Astronomy

Nov. 02, 2014 Rise Set
Actual Time 6:39 AM EST 4:46 PM EST
Civil Twilight 6:08 AM EST 5:16 PM EST
Nautical Twilight 5:33 AM EST 5:51 PM EST
Astronomical Twilight 4:59 AM EST 6:25 PM EST
Moon 2:28 PM EST (11/2) 1:26 AM EST (11/2)
Length of Visible Light 11h 08m
Length of Day
10h 07m
Waxing Gibbous, 78% of the Moon is Illuminated
Nov 2
Waxing Gibbous
Nov 6
Full
Nov 14
Last Quarter
Nov 22
New
Nov 29
First Quarter

Hourly Weather History & Observations

Time (EST) Temp. Windchill Dew Point Humidity Pressure Visibility Wind Dir Wind Speed Gust Speed Precip Events Conditions
12:53 AM 37.9 °F 31.5 °F 25.0 °F 60% 30.14 in 10.0 mi North 9.2 mph - N/A   Overcast
1:53 AM 37.9 °F 32.1 °F 25.0 °F 60% 30.15 in 10.0 mi North 8.1 mph - N/A   Overcast
1:53 AM 37.9 °F 30.9 °F 25.0 °F 60% 30.16 in 10.0 mi North 10.4 mph - N/A   Overcast
2:53 AM 37.0 °F 29.8 °F 24.1 °F 59% 30.14 in 10.0 mi North 10.4 mph - N/A   Overcast
3:53 AM 37.0 °F 29.8 °F 24.1 °F 59% 30.14 in 10.0 mi North 10.4 mph 20.7 mph N/A   Overcast
4:53 AM 37.0 °F 28.5 °F 23.0 °F 57% 30.16 in 10.0 mi North 13.8 mph - N/A   Overcast
5:53 AM 36.0 °F 27.5 °F 21.9 °F 57% 30.17 in 10.0 mi North 12.7 mph 21.9 mph N/A   Overcast
6:53 AM 34.0 °F 26.0 °F 23.0 °F 64% 30.18 in 10.0 mi NNW 10.4 mph - N/A   Mostly Cloudy
7:53 AM 35.1 °F 27.4 °F 23.0 °F 61% 30.19 in 10.0 mi NNW 10.4 mph 21.9 mph N/A   Clear
8:53 AM 37.0 °F 28.1 °F 21.9 °F 54% 30.17 in 10.0 mi NNW 15.0 mph 23.0 mph N/A   Clear
9:53 AM 37.9 °F 28.5 °F 19.9 °F 48% 30.17 in 10.0 mi North 17.3 mph 23.0 mph N/A   Clear
10:53 AM 41.0 °F 33.1 °F 19.9 °F 43% 30.15 in 10.0 mi North 15.0 mph 18.4 mph N/A   Clear
11:53 AM 42.1 °F 36.1 °F 19.9 °F 41% 30.12 in 10.0 mi NW 10.4 mph 23.0 mph N/A   Clear
12:53 PM 43.0 °F 35.4 °F 16.0 °F 34% 30.08 in 10.0 mi NW 16.1 mph - N/A   Clear
1:53 PM 44.1 °F 35.7 °F 12.9 °F 28% 30.06 in 10.0 mi NNW 20.7 mph 25.3 mph N/A   Clear
2:53 PM 44.1 °F 38.1 °F 14.0 °F 30% 30.07 in 10.0 mi NW 11.5 mph 23.0 mph N/A   Clear
3:53 PM 42.1 °F 34.5 °F 16.0 °F 35% 30.06 in 10.0 mi WNW 15.0 mph - N/A   Clear
4:53 PM 39.9 °F 34.5 °F 15.1 °F 36% 30.07 in 10.0 mi WNW 8.1 mph - N/A   Clear
5:53 PM 37.4 °F 32.1 °F 17.6 °F 45% 30.06 in 10.0 mi WNW 6.9 mph - N/A   Clear
6:53 PM 36.0 °F 29.0 °F 19.9 °F 52% 30.08 in 10.0 mi West 9.2 mph - N/A   Clear
7:53 PM 36.0 °F 28.5 °F 21.0 °F 55% 30.09 in 10.0 mi WNW 10.4 mph - N/A   Clear
8:53 PM 35.1 °F 27.9 °F 19.9 °F 54% 30.08 in 10.0 mi West 9.2 mph - N/A   Clear
9:53 PM 34.0 °F 27.2 °F 19.9 °F 56% 30.07 in 10.0 mi West 8.1 mph - N/A   Clear
10:53 PM 34.0 °F 24.6 °F 21.9 °F 61% 30.07 in 10.0 mi WNW 13.8 mph - N/A   Clear